Regional Weather Roundup
Issued by NWS

Home | Current Version | Previous Version | Graphics & Text | Print | Product List | Glossary On
Versions: 1 2 3 4 5 6 7 8 9 10 11 12 13 14 15 16 17 18 19 20 21 22 23 24 25 26 27 28 29 30 31 32 33 34 35 36 37 38 39 40 41 42 43 44 45 46 47
000
ASUS45 KTFX 291310
RWRMT
MONTANA REGIONAL WEATHER ROUNDUP
NATIONAL WEATHER SERVICE GREAT FALLS MT
700 AM MDT WED JUL 29 2015

NOTE: "FAIR" INDICATES FEW OR NO CLOUDS BELOW 12000 FEET WITH NO
SIGNIFICANT WEATHER AND/OR OBSTRUCTIONS TO VISIBILITY.

MTZ001>007-043-291400-
WEST OF THE DIVIDE

CITY           SKY/WX    TMP DP  RH WIND       PRES   REMARKS
KALISPELL      MOSUNNY   43  41  93 CALM      30.25R
MISSOULA       CLEAR     48  41  76 CALM      30.32R
BUTTE          CLEAR     37  33  85 SE3       30.38R
MULLAN PASS    CLEAR     52  32  46 W5        30.35R
DEER LODGE       N/A     43  37  81 CALM      30.39R
EUREKA           N/A     45  41  87 CALM      30.25S
HAMILTON         N/A     50  39  66 S9        30.32R
LIBBY            N/A     41  39  93 CALM      30.27R
RONAN            N/A     46  43  90 CALM      30.28R
$$

MTZ008-052>055-291400-
SOUTHWEST MONTANA

CITY           SKY/WX    TMP DP  RH WIND       PRES   REMARKS
BOZEMAN        CLEAR     46  39  76 SE7       30.33S
DILLON         CLEAR     43  38  82 S7        30.36R
W YELLOWSTONE  CLEAR     32  30  93 CALM      30.45R
$$

MTZ009-010-012-014-046-048-049-054-291400-
EAST SLOPES AND CENTRAL MONTANA

CITY           SKY/WX    TMP DP  RH WIND       PRES   REMARKS
CUT BANK       CLEAR     50  40  68 W8        30.20R
GREAT FALLS    CLEAR     55  40  56 SW10      30.22R
MALMSTROM AFB  CLEAR     54  42  64 SW9       30.22S
HELENA         CLEAR     51  42  71 CALM      30.29R
$$

MTZ011-013-016-021-045-047-050-051-291400-
NORTH CENTRAL MONTANA

CITY           SKY/WX    TMP DP  RH WIND       PRES   REMARKS
HAVRE          CLOUDY    56  46  69 SW14      30.15R
LEWISTOWN      CLEAR     48  40  73 SE7       30.26R
CHINOOK          N/A     55  48  76 CALM      30.15R
FORT BENTON      N/A     55  45  67 SW5       30.20S
$$

MTZ017>020-022>027-061-062-291400-
NORTHEAST MONTANA

CITY           SKY/WX    TMP DP  RH WIND       PRES   REMARKS
GLASGOW        MOSUNNY   54  48  80 NW3       30.10R
JORDAN           N/A     52  45  77 W8        30.15R
SIDNEY         PTSUNNY   63  46  55 W14       30.06R
WOLF POINT     PTSUNNY   55  49  80 SW8       30.08R
MALTA            N/A     52  47  83 SW7       30.08R
PLENTYWOOD       N/A     57  50  77 W10       30.01R
POPLAR           N/A     55  52  88 SW9       30.07R
$$

MTZ028>42-056>058-291400-
SOUTHCENTRAL AND SOUTHEAST MONTANA

CITY           SKY/WX    TMP DP  RH WIND       PRES   REMARKS
BAKER          MOSUNNY   57  41  55 W12       30.16R
BILLINGS       PTCLDY    53  37  54 SW14      30.26R
LIVINGSTON     CLEAR     47  38  71 CALM      30.31R
MILES CITY     SUNNY     53  44  71 W6        30.17R
FORSYTH          N/A     59  41  51 W6        30.19R
LAUREL           N/A     51  37  58 CALM      30.23R
ROUNDUP          N/A     51  39  63 S9        30.13R
$$

REGIONAL REPORTS...DAKOTAS

CITY           SKY/WX    TMP DP  RH WIND       PRES   REMARKS
WILLISTON      PTSUNNY   60  49  66 W17G24    30.00R
MINOT          PTSUNNY   62  51  67 W18       29.88R
DICKINSON      MOSUNNY   60  44  55 W15       30.07R
BEACH          FAIR      57  45  62 W14       30.12R
CROSBY         FAIR      57  55  94 W14       29.96R
BISMARCK       SUNNY     63  48  58 W14       30.00R
GRAND FORKS    CLOUDY    65  55  70 W20G32    29.68R
FARGO          PTSUNNY   65  52  62 W21G31    29.78R
BUFFALO SD       N/A     55  40  56 W9        30.11R
RAPID CITY     SUNNY     60  43  53 W10       30.24S
$$

REGIONAL REPORTS...WYOMING/IDAHO/WASHINGTON

CITY           SKY/WX    TMP DP  RH WIND       PRES   REMARKS
GILLETTE       SUNNY     59  37  44 SW10      30.30R
SHERIDAN       SUNNY     55  37  50 CALM      30.28R
BUFFALO WY     SUNNY     58  33  39 SW6       30.34R
CODY           CLEAR     54  34  47 SW8       30.34R
YELLOWSTONE LA   N/A     30  27  88 W3        30.49R
IDAHO FALLS    CLEAR     40  37  89 N5        30.35R
SALMON         CLEAR     43  39  87 CALM      30.36R
BOISE          CLEAR     58  36  43 SE7       30.23R
SPOKANE        PTCLDY    58  40  51 SE9       30.21R
$$

REGIONAL REPORTS...ALBERTA

CITY           SKY/WX    TMP DP  RH WIND       PRES   REMARKS
EDMONTON       CLEAR     54  46  76 W6        30.03R
CALGARY        PTCLDY    55  41  58 N6        30.14S
LETHBRIDGE     PTCLDY    54  43  66 W8        30.16R
MEDICINE HAT   PTCLDY    54  46  76 SW10      30.11R
WATERTON GATE    N/A     57  41  54 SW12G21     N/A
CARDSTON         N/A     54  39  58 SW7         N/A
MILK RIVER       N/A     50  43  76 NW12        N/A
ONEFOUR          N/A     54  45  71 NW13        N/A
$$

REGIONAL REPORTS...SASKATCHEWAN

CITY           SKY/WX    TMP DP  RH WIND       PRES   REMARKS
SWIFT CURRENT  SUNNY     55  48  76 W12       30.04R
REGINA         PTSUNNY   55  52  88 W12       29.92R
SASKATOON      MOSUNNY   57  52  82 NW12      29.91R
CYPRESS HILLS    N/A     55  43  62 NW5         N/A
VAL MARIE        N/A     52  48  87 S5          N/A
ROCKGLEN         N/A     55  48  76 W12G17      N/A
$$


USA.gov is the U.S. government's official web portal to all federal, state and local government web resources and services.